User: anonymous   Login
Location: Lawrence Hall of Science
(37.8785°N, 122.2415°W)
Time: 04:40:50
(UTC-08:00)
Language:

ARGOS - Orbit

View from above orbital plane
View from above orbital plane
View from above satellite
View from above satellite

Ground track
Ground track

The orbit data is extracted from the following two-line orbital elements,

1 25634U 99008A   16044.17083320  .00000015  00000-0  27732-4 0  9996
2 25634  98.6841 112.3631 0010341 174.5675 185.5615 14.19278266878953
Epoch (UTC): 13 February 2016 04:05:59
Eccentricity: 0.0010341
inclination: 98.6841°
perigee height: 820 km
apogee height: 835 km
right ascension of ascending node: 112.3631°
argument of perigee: 174.5675°
revolutions per day: 14.19278266
mean anomaly at epoch: 185.5615°
orbit number at epoch: 87895

The dashed part of the orbit path shows where the satellite is in the earth's shadow,  

DLR